When you browse on this site, cookies collect data to enhance your experience and personalize the content and advertising you see.
Visit our Privacy Policy to learn more. By continuing to use the site, you agree to this use of cookies and data.

Meteo orario Gorevichi

Oggi, 9 Agosto, Domenica

Tempo Temperatura Precipitazioni Vento Pressione Umidità
00:00 +20°C° 0 mm 1 m/s 748 mm Hg 90%
01:00 +19°C° 0 mm 1 m/s 748 mm Hg 91%
02:00 +19°C° 0 mm 1 m/s 748 mm Hg 92%
03:00 +19°C° 0 mm 1 m/s 748 mm Hg 92%
04:00 +18°C° 0 mm 1 m/s 747 mm Hg 92%
05:00 +18°C° 0 mm 1 m/s 747 mm Hg 93%
06:00 +20°C° 0 mm 1 m/s 747 mm Hg 89%
07:00 +21°C° 0 mm 1 m/s 747 mm Hg 84%
08:00 +22°C° 0 mm 1 m/s 747 mm Hg 80%
09:00 +24°C° 0.2 mm 1 m/s 747 mm Hg 75%
10:00 +25°C° 0.2 mm 1 m/s 747 mm Hg 69%
11:00 +26°C° 0.2 mm 2 m/s 747 mm Hg 64%
12:00 +27°C° 0 mm 1 m/s 747 mm Hg 61%
13:00 +27°C° 0 mm 1 m/s 747 mm Hg 58%
14:00 +28°C° 0 mm 1 m/s 747 mm Hg 55%
15:00 +27°C° 0.5 mm 1 m/s 746 mm Hg 59%
16:00 +27°C° 0.5 mm 2 m/s 746 mm Hg 63%
17:00 +26°C° 0.5 mm 2 m/s 746 mm Hg 68%
18:00 +25°C° 0.3 mm 2 m/s 746 mm Hg 74%
19:00 +23°C° 0.3 mm 2 m/s 746 mm Hg 80%
20:00 +21°C° 0.3 mm 1 m/s 746 mm Hg 86%
21:00 +21°C° 0 mm 1 m/s 746 mm Hg 88%
22:00 +20°C° 0 mm 1 m/s 746 mm Hg 89%
23:00 +19°C° 0 mm 1 m/s 746 mm Hg 91%

Domani, 10 Agosto, Lunedi

Tempo Temperatura Precipitazioni Vento Pressione Umidità
00:00 +19°C° 0.1 mm 1 m/s 746 mm Hg 91%
01:00 +19°C° 0.1 mm 1 m/s 746 mm Hg 92%
02:00 +18°C° 0.1 mm 1 m/s 746 mm Hg 92%
03:00 +18°C° 0.2 mm 1 m/s 746 mm Hg 93%
04:00 +18°C° 0.2 mm 1 m/s 746 mm Hg 93%
05:00 +18°C° 0.2 mm 1 m/s 745 mm Hg 94%
06:00 +19°C° 0 mm 1 m/s 746 mm Hg 90%
07:00 +20°C° 0 mm 1 m/s 746 mm Hg 86%
08:00 +22°C° 0 mm 1 m/s 746 mm Hg 82%
09:00 +23°C° 0.4 mm 2 m/s 746 mm Hg 76%
10:00 +25°C° 0.4 mm 2 m/s 746 mm Hg 70%
11:00 +26°C° 0.4 mm 2 m/s 746 mm Hg 64%
12:00 +27°C° 0.7 mm 2 m/s 746 mm Hg 62%
13:00 +27°C° 0.7 mm 2 m/s 745 mm Hg 59%
14:00 +28°C° 0.7 mm 3 m/s 745 mm Hg 56%
15:00 +28°C° 0.4 mm 2 m/s 745 mm Hg 58%
16:00 +28°C° 0.4 mm 2 m/s 745 mm Hg 59%
17:00 +27°C° 0.4 mm 2 m/s 745 mm Hg 61%
18:00 +25°C° 0.1 mm 2 m/s 745 mm Hg 68%
19:00 +24°C° 0.1 mm 2 m/s 745 mm Hg 74%
20:00 +21°C° 0.1 mm 2 m/s 745 mm Hg 81%
21:00 +20°C° 0.1 mm 2 m/s 745 mm Hg 83%
22:00 +19°C° 0.1 mm 2 m/s 745 mm Hg 85%
23:00 +18°C° 0.1 mm 2 m/s 745 mm Hg 87%

Dopodomani, 11 Agosto, Martedi

Tempo Temperatura Precipitazioni Vento Pressione Umidità
00:00 +18°C° 0 mm 2 m/s 745 mm Hg 87%
01:00 +17°C° 0 mm 2 m/s 745 mm Hg 88%
02:00 +17°C° 0 mm 2 m/s 745 mm Hg 88%
03:00 +17°C° 0 mm 2 m/s 745 mm Hg 89%
04:00 +17°C° 0 mm 2 m/s 745 mm Hg 90%
05:00 +16°C° 0 mm 2 m/s 745 mm Hg 91%
06:00 +17°C° 0 mm 2 m/s 746 mm Hg 89%
07:00 +18°C° 0 mm 2 m/s 746 mm Hg 86%
08:00 +19°C° 0 mm 2 m/s 746 mm Hg 84%
09:00 +21°C° 0.2 mm 3 m/s 746 mm Hg 78%
10:00 +22°C° 0.2 mm 3 m/s 746 mm Hg 72%
11:00 +23°C° 0.2 mm 4 m/s 746 mm Hg 65%
12:00 +23°C° 0.1 mm 4 m/s 746 mm Hg 62%
13:00 +23°C° 0.1 mm 4 m/s 746 mm Hg 60%
14:00 +25°C° 0.1 mm 4 m/s 746 mm Hg 57%
15:00 +23°C° 0 mm 4 m/s 746 mm Hg 58%
16:00 +22°C° 0 mm 4 m/s 746 mm Hg 59%
17:00 +22°C° 0 mm 4 m/s 746 mm Hg 60%
18:00 +20°C° 0 mm 4 m/s 746 mm Hg 66%
19:00 +18°C° 0 mm 3 m/s 746 mm Hg 71%
20:00 +16°C° 0 mm 3 m/s 746 mm Hg 77%
21:00 +14°C° 0 mm 3 m/s 747 mm Hg 79%
22:00 +13°C° 0 mm 3 m/s 747 mm Hg 81%
23:00 +14°C° 0 mm 2 m/s 747 mm Hg 83%

12 Agosto, Mercoledi

Tempo Temperatura Precipitazioni Vento Pressione Umidità
00:00 +13°C° 0 mm 2 m/s 747 mm Hg 85%
01:00 +12°C° 0 mm 2 m/s 748 mm Hg 87%
02:00 +12°C° 0 mm 2 m/s 748 mm Hg 89%
03:00 +10°C° 0 mm 2 m/s 748 mm Hg 90%
04:00 +10°C° 0 mm 2 m/s 748 mm Hg 91%
05:00 +9°C° 0 mm 2 m/s 748 mm Hg 93%
06:00 +12°C° 0 mm 2 m/s 748 mm Hg 86%
07:00 +14°C° 0 mm 2 m/s 749 mm Hg 80%
08:00 +15°C° 0 mm 2 m/s 749 mm Hg 74%
09:00 +16°C° 0 mm 2 m/s 749 mm Hg 68%
10:00 +17°C° 0 mm 3 m/s 749 mm Hg 62%
11:00 +19°C° 0 mm 3 m/s 749 mm Hg 56%
12:00 +19°C° 0 mm 3 m/s 749 mm Hg 56%
13:00 +19°C° 0 mm 3 m/s 749 mm Hg 56%
14:00 +19°C° 0 mm 3 m/s 749 mm Hg 57%
15:00 +19°C° 0 mm 3 m/s 749 mm Hg 58%
16:00 +19°C° 0 mm 3 m/s 749 mm Hg 59%
17:00 +18°C° 0 mm 3 m/s 749 mm Hg 60%
18:00 +17°C° 0 mm 2 m/s 748 mm Hg 66%
19:00 +15°C° 0 mm 1 m/s 748 mm Hg 72%
20:00 +13°C° 0 mm 1 m/s 748 mm Hg 78%
21:00 +12°C° 0 mm 0 m/s 748 mm Hg 79%
22:00 +11°C° 0 mm 0 m/s 749 mm Hg 81%
23:00 +11°C° 0 mm 0 m/s 749 mm Hg 82%

13 Agosto, Giovedi

Tempo Temperatura Precipitazioni Vento Pressione Umidità
00:00 +11°C° 0 mm 0 m/s 749 mm Hg 83%
01:00 +10°C° 0 mm 0 m/s 749 mm Hg 84%
02:00 +11°C° 0 mm 1 m/s 748 mm Hg 86%
03:00 +9°C° 0 mm 0 m/s 748 mm Hg 87%
04:00 +9°C° 0 mm 0 m/s 748 mm Hg 87%
05:00 +9°C° 0 mm 0 m/s 748 mm Hg 88%
06:00 +11°C° 0 mm 0 m/s 748 mm Hg 82%
07:00 +13°C° 0 mm 0 m/s 748 mm Hg 77%
08:00 +15°C° 0 mm 0 m/s 748 mm Hg 71%
09:00 +18°C° 0 mm 1 m/s 748 mm Hg 66%
10:00 +19°C° 0 mm 1 m/s 748 mm Hg 62%
11:00 +21°C° 0 mm 1 m/s 748 mm Hg 57%
12:00 +21°C° 0 mm 1 m/s 748 mm Hg 57%
13:00 +21°C° 0 mm 1 m/s 747 mm Hg 57%
14:00 +21°C° 0 mm 1 m/s 747 mm Hg 57%
15:00 +21°C° 0 mm 1 m/s 747 mm Hg 58%
16:00 +21°C° 0 mm 1 m/s 746 mm Hg 59%
17:00 +21°C° 0 mm 1 m/s 746 mm Hg 60%
18:00 +19°C° 0 mm 1 m/s 746 mm Hg 67%
19:00 +18°C° 0 mm 1 m/s 746 mm Hg 73%
20:00 +15°C° 0 mm 1 m/s 746 mm Hg 79%
21:00 +14°C° 0 mm 1 m/s 746 mm Hg 80%
22:00 +14°C° 0 mm 1 m/s 746 mm Hg 81%
23:00 +13°C° 0 mm 2 m/s 746 mm Hg 82%

14 Agosto, Venerdi

Tempo Temperatura Precipitazioni Vento Pressione Umidità
00:00 +13°C° 0 mm 1 m/s 746 mm Hg 83%
01:00 +13°C° 0 mm 1 m/s 746 mm Hg 84%
02:00 +12°C° 0 mm 1 m/s 746 mm Hg 85%
03:00 +12°C° 0 mm 1 m/s 746 mm Hg 86%
04:00 +12°C° 0 mm 1 m/s 746 mm Hg 88%
05:00 +12°C° 0 mm 1 m/s 746 mm Hg 89%
06:00 +13°C° 0 mm 1 m/s 746 mm Hg 83%
07:00 +15°C° 0 mm 1 m/s 746 mm Hg 78%
08:00 +16°C° 0 mm 1 m/s 746 mm Hg 73%
09:00 +18°C° 0 mm 2 m/s 746 mm Hg 69%
10:00 +20°C° 0 mm 2 m/s 746 mm Hg 65%
11:00 +21°C° 0 mm 2 m/s 746 mm Hg 61%
12:00 +23°C° 0 mm 2 m/s 746 mm Hg 59%
13:00 +22°C° 0 mm 3 m/s 745 mm Hg 57%
14:00 +24°C° 0 mm 3 m/s 745 mm Hg 55%
15:00 +24°C° 0 mm 3 m/s 745 mm Hg 56%
16:00 +24°C° 0 mm 3 m/s 745 mm Hg 57%
17:00 +24°C° 0 mm 2 m/s 745 mm Hg 58%
18:00 +21°C° 0 mm 2 m/s 745 mm Hg 65%
19:00 +20°C° 0 mm 2 m/s 745 mm Hg 72%
20:00 +18°C° 0 mm 2 m/s 744 mm Hg 79%
21:00 +17°C° 0 mm 2 m/s 745 mm Hg 80%
22:00 +17°C° 0 mm 2 m/s 745 mm Hg 81%
23:00 +16°C° 0 mm 2 m/s 745 mm Hg 82%
Mostrare altro